Year,Month,Day,Hour,Minute,Value (Times are PST for windgust in km/hr)
2008,12,31,00,00,27.40
2008,12,31,00,01,27.40
2008,12,31,00,02,29.00
2008,12,31,00,03,41.80
2008,12,31,00,04,45.10
2008,12,31,00,05,43.50
2008,12,31,00,06,38.60
2008,12,31,00,07,46.70
2008,12,31,00,08,24.20
2008,12,31,00,09,33.80
2008,12,31,00,10,46.70
2008,12,31,00,11,27.40
2008,12,31,00,12,37.00
2008,12,31,00,13,24.20
2008,12,31,00,14,33.80
2008,12,31,00,15,24.20
2008,12,31,00,16,25.70
2008,12,31,00,17,20.90
2008,12,31,00,18,14.50
2008,12,31,00,19,40.20
2008,12,31,00,20,24.20
2008,12,31,00,21,29.00
2008,12,31,00,22,30.60
2008,12,31,00,23,25.70
2008,12,31,00,24,24.20
2008,12,31,00,25,33.80
2008,12,31,00,26,38.60
2008,12,31,00,27,16.10
2008,12,31,00,28,16.10
2008,12,31,00,29,20.90
2008,12,31,00,30,11.30
2008,12,31,00,31,19.30
2008,12,31,00,32,30.60
2008,12,31,00,33,24.20
2008,12,31,00,34,19.30
2008,12,31,00,35,6.40
2008,12,31,00,36,17.70
2008,12,31,00,37,19.30
2008,12,31,00,38,14.50
2008,12,31,00,39,14.50
2008,12,31,00,40,25.70
2008,12,31,00,41,22.50
2008,12,31,00,42,14.50
2008,12,31,00,43,8.10
2008,12,31,00,44,9.60
2008,12,31,00,45,17.70
2008,12,31,00,46,17.70
2008,12,31,00,47,4.80
2008,12,31,00,48,8.10
2008,12,31,00,49,17.70
2008,12,31,00,50,14.50
2008,12,31,00,51,12.90
2008,12,31,00,52,14.50
2008,12,31,00,53,8.10
2008,12,31,00,54,6.40
2008,12,31,00,55,6.40
2008,12,31,00,56,20.90
2008,12,31,00,57,16.10
2008,12,31,00,58,3.20
2008,12,31,00,59,8.10
2008,12,31,01,00,6.40
2008,12,31,01,01,8.10
2008,12,31,01,02,12.90
2008,12,31,01,03,17.70
2008,12,31,01,04,16.10
2008,12,31,01,05,6.40
2008,12,31,01,06,9.60
2008,12,31,01,07,9.60
2008,12,31,01,08,8.10
2008,12,31,01,09,9.60
2008,12,31,01,10,6.40
2008,12,31,01,11,19.30
2008,12,31,01,12,25.70
2008,12,31,01,13,16.10
2008,12,31,01,14,14.50
2008,12,31,01,15,11.30
2008,12,31,01,16,8.10
2008,12,31,01,17,6.40
2008,12,31,01,18,6.40
2008,12,31,01,19,6.40
2008,12,31,01,20,6.40
2008,12,31,01,21,17.70
2008,12,31,01,22,19.30
2008,12,31,01,23,9.60
2008,12,31,01,24,16.10
2008,12,31,01,25,9.60
2008,12,31,01,26,9.60
2008,12,31,01,27,12.90
2008,12,31,01,28,8.10
2008,12,31,01,29,6.40
2008,12,31,01,30,4.80
2008,12,31,01,31,9.60
2008,12,31,01,32,9.60
2008,12,31,01,33,11.30
2008,12,31,01,34,8.10
2008,12,31,01,35,4.80
2008,12,31,01,36,8.10
2008,12,31,01,37,16.10
2008,12,31,01,38,9.60
2008,12,31,01,39,6.40
2008,12,31,01,40,3.20
2008,12,31,01,41,9.60
2008,12,31,01,42,11.30
2008,12,31,01,43,9.60
2008,12,31,01,44,8.10
2008,12,31,01,45,6.40
2008,12,31,01,46,6.40
2008,12,31,01,47,11.30
2008,12,31,01,48,6.40
2008,12,31,01,49,8.10
2008,12,31,01,50,4.80
2008,12,31,01,51,4.80
2008,12,31,01,52,11.30
2008,12,31,01,53,8.10
2008,12,31,01,54,11.30
2008,12,31,01,55,8.10
2008,12,31,01,56,11.30
2008,12,31,01,57,8.10
2008,12,31,01,58,9.60
2008,12,31,01,59,9.60
2008,12,31,02,00,6.40
2008,12,31,02,01,16.10
2008,12,31,02,02,9.60
2008,12,31,02,03,4.80
2008,12,31,02,04,4.80
2008,12,31,02,05,11.30
2008,12,31,02,06,11.30
2008,12,31,02,07,8.10
2008,12,31,02,08,14.50
2008,12,31,02,09,14.50
2008,12,31,02,10,20.90
2008,12,31,02,11,9.60
2008,12,31,02,12,6.40
2008,12,31,02,13,8.10
2008,12,31,02,14,9.60
2008,12,31,02,15,17.70
2008,12,31,02,16,9.60
2008,12,31,02,17,6.40
2008,12,31,02,18,14.50
2008,12,31,02,19,6.40
2008,12,31,02,20,6.40
2008,12,31,02,21,1.60
2008,12,31,02,22,4.80
2008,12,31,02,23,4.80
2008,12,31,02,24,4.80
2008,12,31,02,25,17.70
2008,12,31,02,26,11.30
2008,12,31,02,27,11.30
2008,12,31,02,28,12.90
2008,12,31,02,29,8.10
2008,12,31,02,30,8.10
2008,12,31,02,31,9.60
2008,12,31,02,32,4.80
2008,12,31,02,33,6.40
2008,12,31,02,34,3.20
2008,12,31,02,35,3.20
2008,12,31,02,36,3.20
2008,12,31,02,37,4.80
2008,12,31,02,38,4.80
2008,12,31,02,39,9.60
2008,12,31,02,40,4.80
2008,12,31,02,41,4.80
2008,12,31,02,42,4.80
2008,12,31,02,43,3.20
2008,12,31,02,44,3.20
2008,12,31,02,45,4.80
2008,12,31,02,46,3.20
2008,12,31,02,47,4.80
2008,12,31,02,48,6.40
2008,12,31,02,49,3.20
2008,12,31,02,50,3.20
2008,12,31,02,51,4.80
2008,12,31,02,52,3.20
2008,12,31,02,53,3.20
2008,12,31,02,54,3.20
2008,12,31,02,55,3.20
2008,12,31,02,56,4.80
2008,12,31,02,57,3.20
2008,12,31,02,58,1.60
2008,12,31,02,59,1.60
2008,12,31,03,00,3.20
2008,12,31,03,01,1.60
2008,12,31,03,02,1.60
2008,12,31,03,03,1.60
2008,12,31,03,04,0.00
2008,12,31,03,05,0.00
2008,12,31,03,06,1.60
2008,12,31,03,07,1.60
2008,12,31,03,08,0.00
2008,12,31,03,09,1.60
2008,12,31,03,10,1.60
2008,12,31,03,11,3.20
2008,12,31,03,12,6.40
2008,12,31,03,13,9.60
2008,12,31,03,14,9.60
2008,12,31,03,15,4.80
2008,12,31,03,16,3.20
2008,12,31,03,17,1.60
2008,12,31,03,18,3.20
2008,12,31,03,19,0.00
2008,12,31,03,20,4.80
2008,12,31,03,21,4.80
2008,12,31,03,22,6.40
2008,12,31,03,23,3.20
2008,12,31,03,24,4.80
2008,12,31,03,25,3.20
2008,12,31,03,26,1.60
2008,12,31,03,27,1.60
2008,12,31,03,28,3.20
2008,12,31,03,29,1.60
2008,12,31,03,30,3.20
2008,12,31,03,31,0.00
2008,12,31,03,32,1.60
2008,12,31,03,33,3.20
2008,12,31,03,34,3.20
2008,12,31,03,35,1.60
2008,12,31,03,36,0.00
2008,12,31,03,37,0.00
2008,12,31,03,38,0.00
2008,12,31,03,39,3.20
2008,12,31,03,40,3.20
2008,12,31,03,41,4.80
2008,12,31,03,42,1.60
2008,12,31,03,43,3.20
2008,12,31,03,44,4.80
2008,12,31,03,45,3.20
2008,12,31,03,46,1.60
2008,12,31,03,47,1.60
2008,12,31,03,48,1.60
2008,12,31,03,49,3.20
2008,12,31,03,50,4.80
2008,12,31,03,51,4.80
2008,12,31,03,52,3.20
2008,12,31,03,53,3.20
2008,12,31,03,54,3.20
2008,12,31,03,55,1.60
2008,12,31,03,56,0.00
2008,12,31,03,57,0.00
2008,12,31,03,58,0.00
2008,12,31,03,59,0.00
2008,12,31,04,00,0.00
2008,12,31,04,01,0.00
2008,12,31,04,02,3.20
2008,12,31,04,03,3.20
2008,12,31,04,04,4.80
2008,12,31,04,05,3.20
2008,12,31,04,06,4.80
2008,12,31,04,07,3.20
2008,12,31,04,08,3.20
2008,12,31,04,09,4.80
2008,12,31,04,10,3.20
2008,12,31,04,11,1.60
2008,12,31,04,12,3.20
2008,12,31,04,13,3.20
2008,12,31,04,14,4.80
2008,12,31,04,15,3.20
2008,12,31,04,16,3.20
2008,12,31,04,17,0.00
2008,12,31,04,18,1.60
2008,12,31,04,19,1.60
2008,12,31,04,20,1.60
2008,12,31,04,21,3.20
2008,12,31,04,22,3.20
2008,12,31,04,23,1.60
2008,12,31,04,24,0.00
2008,12,31,04,25,0.00
2008,12,31,04,26,1.60
2008,12,31,04,27,3.20
2008,12,31,04,28,3.20
2008,12,31,04,29,1.60
2008,12,31,04,30,3.20
2008,12,31,04,31,1.60
2008,12,31,04,32,3.20
2008,12,31,04,33,1.60
2008,12,31,04,34,1.60
2008,12,31,04,35,3.20
2008,12,31,04,36,4.80
2008,12,31,04,37,1.60
2008,12,31,04,38,1.60
2008,12,31,04,39,1.60
2008,12,31,04,40,3.20
2008,12,31,04,41,1.60
2008,12,31,04,42,3.20
2008,12,31,04,43,1.60
2008,12,31,04,44,1.60
2008,12,31,04,45,0.00
2008,12,31,04,46,1.60
2008,12,31,04,47,1.60
2008,12,31,04,48,3.20
2008,12,31,04,49,3.20
2008,12,31,04,50,3.20
2008,12,31,04,51,1.60
2008,12,31,04,52,1.60
2008,12,31,04,53,4.80
2008,12,31,04,54,4.80
2008,12,31,04,55,3.20
2008,12,31,04,56,4.80
2008,12,31,04,57,3.20
2008,12,31,04,58,0.00
2008,12,31,04,59,3.20
2008,12,31,05,00,3.20
2008,12,31,05,01,3.20
2008,12,31,05,02,1.60
2008,12,31,05,03,1.60
2008,12,31,05,04,3.20
2008,12,31,05,05,3.20
2008,12,31,05,06,3.20
2008,12,31,05,07,0.00
2008,12,31,05,08,3.20
2008,12,31,05,09,1.60
2008,12,31,05,10,1.60
2008,12,31,05,11,1.60
2008,12,31,05,12,3.20
2008,12,31,05,13,6.40
2008,12,31,05,14,3.20
2008,12,31,05,15,3.20
2008,12,31,05,16,4.80
2008,12,31,05,17,4.80
2008,12,31,05,18,4.80
2008,12,31,05,19,4.80
2008,12,31,05,20,4.80
2008,12,31,05,21,4.80
2008,12,31,05,22,6.40
2008,12,31,05,23,6.40
2008,12,31,05,24,6.40
2008,12,31,05,25,6.40
2008,12,31,05,26,3.20
2008,12,31,05,27,1.60
2008,12,31,05,28,1.60
2008,12,31,05,29,3.20
2008,12,31,05,30,4.80
2008,12,31,05,31,3.20
2008,12,31,05,32,1.60
2008,12,31,05,33,0.00
2008,12,31,05,34,0.00
2008,12,31,05,35,1.60
2008,12,31,05,36,4.80
2008,12,31,05,37,4.80
2008,12,31,05,38,4.80
2008,12,31,05,39,3.20
2008,12,31,05,40,4.80
2008,12,31,05,41,1.60
2008,12,31,05,42,0.00
2008,12,31,05,43,1.60
2008,12,31,05,44,1.60
2008,12,31,05,45,3.20
2008,12,31,05,46,3.20
2008,12,31,05,47,14.50
2008,12,31,05,48,12.90
2008,12,31,05,49,6.40
2008,12,31,05,50,6.40
2008,12,31,05,51,6.40
2008,12,31,05,52,3.20
2008,12,31,05,53,4.80
2008,12,31,05,54,8.10
2008,12,31,05,55,8.10
2008,12,31,05,56,3.20
2008,12,31,05,57,3.20
2008,12,31,05,58,3.20
2008,12,31,05,59,1.60
2008,12,31,06,00,3.20
2008,12,31,06,01,3.20
2008,12,31,06,02,1.60
2008,12,31,06,03,1.60
2008,12,31,06,04,0.00
2008,12,31,06,05,0.00
2008,12,31,06,06,1.60
2008,12,31,06,07,3.20
2008,12,31,06,08,3.20
2008,12,31,06,09,3.20
2008,12,31,06,10,3.20
2008,12,31,06,11,4.80
2008,12,31,06,12,6.40
2008,12,31,06,13,6.40
2008,12,31,06,14,1.60
2008,12,31,06,15,1.60
2008,12,31,06,16,1.60
2008,12,31,06,17,3.20
2008,12,31,06,18,1.60
2008,12,31,06,19,1.60
2008,12,31,06,20,1.60
2008,12,31,06,21,0.00
2008,12,31,06,22,0.00
2008,12,31,06,23,0.00
2008,12,31,06,24,0.00
2008,12,31,06,25,0.00
2008,12,31,06,26,0.00
2008,12,31,06,27,0.00
2008,12,31,06,28,0.00
2008,12,31,06,29,0.00
2008,12,31,06,30,4.80
2008,12,31,06,31,0.00
2008,12,31,06,32,1.60
2008,12,31,06,33,1.60
2008,12,31,06,34,1.60
2008,12,31,06,35,3.20
2008,12,31,06,36,3.20
2008,12,31,06,37,3.20
2008,12,31,06,38,0.00
2008,12,31,06,39,1.60
2008,12,31,06,40,1.60
2008,12,31,06,41,1.60
2008,12,31,06,42,1.60
2008,12,31,06,43,1.60
2008,12,31,06,44,4.80
2008,12,31,06,45,4.80
2008,12,31,06,46,1.60
2008,12,31,06,47,1.60
2008,12,31,06,48,1.60
2008,12,31,06,49,3.20
2008,12,31,06,50,6.40
2008,12,31,06,51,3.20
2008,12,31,06,52,3.20
2008,12,31,06,53,6.40
2008,12,31,06,54,9.60
2008,12,31,06,55,14.50
2008,12,31,06,56,27.40
2008,12,31,06,57,19.30
2008,12,31,06,58,8.10
2008,12,31,06,59,11.30
2008,12,31,07,00,8.10
2008,12,31,07,01,8.10
2008,12,31,07,02,6.40
2008,12,31,07,03,14.50
2008,12,31,07,04,4.80
2008,12,31,07,05,4.80
2008,12,31,07,06,3.20
2008,12,31,07,07,11.30
2008,12,31,07,08,8.10
2008,12,31,07,09,6.40
2008,12,31,07,10,3.20
2008,12,31,07,11,3.20
2008,12,31,07,12,3.20
2008,12,31,07,13,4.80
2008,12,31,07,14,1.60
2008,12,31,07,15,4.80
2008,12,31,07,16,4.80
2008,12,31,07,17,3.20
2008,12,31,07,18,1.60
2008,12,31,07,19,4.80
2008,12,31,07,20,3.20
2008,12,31,07,21,3.20
2008,12,31,07,22,4.80
2008,12,31,07,23,1.60
2008,12,31,07,24,1.60
2008,12,31,07,25,4.80
2008,12,31,07,26,6.40
2008,12,31,07,27,3.20
2008,12,31,07,28,6.40
2008,12,31,07,29,3.20
2008,12,31,07,30,3.20
2008,12,31,07,31,4.80
2008,12,31,07,32,1.60
2008,12,31,07,33,3.20
2008,12,31,07,34,14.50
2008,12,31,07,35,6.40
2008,12,31,07,36,8.10
2008,12,31,07,37,4.80
2008,12,31,07,38,3.20
2008,12,31,07,39,3.20
2008,12,31,07,40,8.10
2008,12,31,07,41,1.60
2008,12,31,07,42,4.80
2008,12,31,07,43,3.20
2008,12,31,07,44,3.20
2008,12,31,07,45,6.40
2008,12,31,07,46,6.40
2008,12,31,07,47,3.20
2008,12,31,07,48,4.80
2008,12,31,07,49,14.50
2008,12,31,07,50,11.30
2008,12,31,07,51,11.30
2008,12,31,07,52,12.90
2008,12,31,07,53,8.10
2008,12,31,07,54,3.20
2008,12,31,07,55,9.60
2008,12,31,07,56,3.20
2008,12,31,07,57,1.60
2008,12,31,07,58,3.20
2008,12,31,07,59,1.60
2008,12,31,08,00,0.00
2008,12,31,08,01,0.00
2008,12,31,08,02,0.00
2008,12,31,08,03,3.20
2008,12,31,08,04,1.60
2008,12,31,08,05,0.00
2008,12,31,08,06,0.00
2008,12,31,08,07,0.00
2008,12,31,08,08,3.20
2008,12,31,08,09,3.20
2008,12,31,08,10,3.20
2008,12,31,08,11,1.60
2008,12,31,08,12,0.00
2008,12,31,08,13,0.00
2008,12,31,08,14,1.60
2008,12,31,08,15,1.60
2008,12,31,08,16,3.20
2008,12,31,08,17,3.20
2008,12,31,08,18,16.10
2008,12,31,08,19,8.10
2008,12,31,08,20,3.20
2008,12,31,08,21,4.80
2008,12,31,08,22,4.80
2008,12,31,08,23,4.80
2008,12,31,08,24,3.20
2008,12,31,08,25,3.20
2008,12,31,08,26,4.80
2008,12,31,08,27,0.00
2008,12,31,08,28,3.20
2008,12,31,08,29,1.60
2008,12,31,08,30,1.60
2008,12,31,08,31,3.20
2008,12,31,08,32,3.20
2008,12,31,08,33,3.20
2008,12,31,08,34,1.60
2008,12,31,08,35,1.60
2008,12,31,08,36,6.40
2008,12,31,08,37,3.20
2008,12,31,08,38,6.40
2008,12,31,08,39,3.20
2008,12,31,08,40,6.40
2008,12,31,08,41,6.40
2008,12,31,08,42,6.40
2008,12,31,08,43,4.80
2008,12,31,08,44,4.80
2008,12,31,08,45,3.20
2008,12,31,08,46,0.00
2008,12,31,08,47,1.60
2008,12,31,08,48,1.60
2008,12,31,08,49,3.20
2008,12,31,08,50,3.20
2008,12,31,08,51,6.40
2008,12,31,08,52,3.20
2008,12,31,08,53,3.20
2008,12,31,08,54,9.60
2008,12,31,08,55,11.30
2008,12,31,08,56,3.20
2008,12,31,08,57,1.60
2008,12,31,08,58,3.20
2008,12,31,08,59,6.40
2008,12,31,09,00,3.20
2008,12,31,09,01,3.20
2008,12,31,09,02,8.10
2008,12,31,09,03,6.40
2008,12,31,09,04,1.60
2008,12,31,09,05,1.60
2008,12,31,09,06,1.60
2008,12,31,09,07,1.60
2008,12,31,09,08,1.60
2008,12,31,09,09,0.00
2008,12,31,09,10,0.00
2008,12,31,09,11,1.60
2008,12,31,09,12,3.20
2008,12,31,09,13,3.20
2008,12,31,09,14,1.60
2008,12,31,09,15,1.60
2008,12,31,09,16,4.80
2008,12,31,09,17,3.20
2008,12,31,09,18,0.00
2008,12,31,09,19,0.00
2008,12,31,09,20,3.20
2008,12,31,09,21,1.60
2008,12,31,09,22,0.00
2008,12,31,09,23,0.00
2008,12,31,09,24,1.60
2008,12,31,09,25,3.20
2008,12,31,09,26,1.60
2008,12,31,09,27,1.60
2008,12,31,09,28,1.60
2008,12,31,09,29,1.60
2008,12,31,09,30,1.60
2008,12,31,09,31,1.60
2008,12,31,09,32,3.20
2008,12,31,09,33,1.60
2008,12,31,09,34,3.20
2008,12,31,09,35,4.80
2008,12,31,09,36,4.80
2008,12,31,09,37,1.60
2008,12,31,09,38,3.20
2008,12,31,09,39,4.80
2008,12,31,09,40,4.80
2008,12,31,09,41,4.80
2008,12,31,09,42,4.80
2008,12,31,09,43,4.80
2008,12,31,09,44,3.20
2008,12,31,09,45,6.40
2008,12,31,09,46,6.40
2008,12,31,09,47,1.60
2008,12,31,09,48,1.60
2008,12,31,09,49,1.60
2008,12,31,09,50,1.60
2008,12,31,09,51,0.00
2008,12,31,09,52,1.60
2008,12,31,09,53,1.60
2008,12,31,09,54,3.20
2008,12,31,09,55,3.20
2008,12,31,09,56,0.00
2008,12,31,09,57,1.60
2008,12,31,09,58,1.60
2008,12,31,09,59,1.60
2008,12,31,10,00,3.20
2008,12,31,10,01,0.00
2008,12,31,10,02,1.60
2008,12,31,10,03,3.20
2008,12,31,10,04,4.80
2008,12,31,10,05,4.80
2008,12,31,10,06,3.20
2008,12,31,10,07,3.20
2008,12,31,10,08,1.60
2008,12,31,10,09,0.00
2008,12,31,10,10,0.00
2008,12,31,10,11,1.60
2008,12,31,10,12,1.60
2008,12,31,10,13,1.60
2008,12,31,10,14,3.20
2008,12,31,10,15,3.20
2008,12,31,10,16,6.40
2008,12,31,10,17,3.20
2008,12,31,10,18,1.60
2008,12,31,10,19,4.80
2008,12,31,10,20,4.80
2008,12,31,10,21,3.20
2008,12,31,10,22,1.60
2008,12,31,10,23,4.80
2008,12,31,10,24,8.10
2008,12,31,10,25,8.10
2008,12,31,10,26,1.60
2008,12,31,10,27,1.60
2008,12,31,10,28,8.10
2008,12,31,10,29,4.80
2008,12,31,10,30,1.60
2008,12,31,10,31,4.80
2008,12,31,10,32,6.40
2008,12,31,10,33,6.40
2008,12,31,10,34,8.10
2008,12,31,10,35,9.60
2008,12,31,10,36,6.40
2008,12,31,10,37,6.40
2008,12,31,10,38,4.80
2008,12,31,10,39,4.80
2008,12,31,10,40,11.30
2008,12,31,10,41,3.20
2008,12,31,10,42,17.70
2008,12,31,10,43,4.80
2008,12,31,10,44,6.40
2008,12,31,10,45,6.40
2008,12,31,10,46,6.40
2008,12,31,10,47,1.60
2008,12,31,10,48,3.20
2008,12,31,10,49,4.80
2008,12,31,10,50,3.20
2008,12,31,10,51,6.40
2008,12,31,10,52,6.40
2008,12,31,10,53,6.40
2008,12,31,10,54,3.20
2008,12,31,10,55,3.20
2008,12,31,10,56,1.60
2008,12,31,10,57,4.80
2008,12,31,10,58,6.40
2008,12,31,10,59,8.10
2008,12,31,11,00,3.20
2008,12,31,11,01,9.60
2008,12,31,11,02,9.60
2008,12,31,11,03,9.60
2008,12,31,11,04,6.40
2008,12,31,11,05,11.30
2008,12,31,11,06,8.10
2008,12,31,11,07,4.80
2008,12,31,11,08,6.40
2008,12,31,11,09,9.60
2008,12,31,11,10,14.50
2008,12,31,11,11,11.30
2008,12,31,11,12,6.40
2008,12,31,11,13,3.20
2008,12,31,11,14,16.10
2008,12,31,11,15,14.50
2008,12,31,11,16,14.50
2008,12,31,11,17,6.40
2008,12,31,11,18,4.80
2008,12,31,11,19,6.40
2008,12,31,11,20,9.60
2008,12,31,11,21,11.30
2008,12,31,11,22,6.40
2008,12,31,11,23,11.30
2008,12,31,11,24,6.40
2008,12,31,11,25,3.20
2008,12,31,11,26,4.80
2008,12,31,11,27,4.80
2008,12,31,11,28,4.80
2008,12,31,11,29,4.80
2008,12,31,11,30,6.40
2008,12,31,11,31,6.40
2008,12,31,11,32,4.80
2008,12,31,11,33,1.60
2008,12,31,11,34,4.80
2008,12,31,11,35,3.20
2008,12,31,11,36,3.20
2008,12,31,11,37,4.80
2008,12,31,11,38,8.10
2008,12,31,11,39,8.10
2008,12,31,11,40,6.40
2008,12,31,11,41,6.40
2008,12,31,11,42,16.10
2008,12,31,11,43,11.30
2008,12,31,11,44,3.20
2008,12,31,11,45,14.50
2008,12,31,11,46,8.10
2008,12,31,11,47,9.60
2008,12,31,11,48,4.80
2008,12,31,11,49,3.20
2008,12,31,11,50,6.40
2008,12,31,11,51,4.80
2008,12,31,11,52,4.80
2008,12,31,11,53,4.80
2008,12,31,11,54,8.10
2008,12,31,11,55,6.40
2008,12,31,11,56,11.30
2008,12,31,11,57,9.60
2008,12,31,11,58,4.80
2008,12,31,11,59,8.10
2008,12,31,12,00,8.10
2008,12,31,12,01,8.10
2008,12,31,12,02,9.60
2008,12,31,12,03,4.80
2008,12,31,12,04,6.40
2008,12,31,12,05,4.80
2008,12,31,12,06,9.60
2008,12,31,12,07,8.10
2008,12,31,12,08,4.80
2008,12,31,12,09,6.40
2008,12,31,12,10,11.30
2008,12,31,12,11,6.40
2008,12,31,12,12,3.20
2008,12,31,12,13,3.20
2008,12,31,12,14,3.20
2008,12,31,12,15,3.20
2008,12,31,12,16,8.10
2008,12,31,12,17,8.10
2008,12,31,12,18,6.40
2008,12,31,12,19,4.80
2008,12,31,12,20,4.80
2008,12,31,12,21,8.10
2008,12,31,12,22,8.10
2008,12,31,12,23,4.80
2008,12,31,12,24,6.40
2008,12,31,12,25,4.80
2008,12,31,12,26,3.20
2008,12,31,12,27,1.60
2008,12,31,12,28,8.10
2008,12,31,12,29,6.40
2008,12,31,12,30,4.80
2008,12,31,12,31,4.80
2008,12,31,12,32,6.40
2008,12,31,12,33,3.20
2008,12,31,12,34,4.80
2008,12,31,12,35,6.40
2008,12,31,12,36,3.20
2008,12,31,12,37,4.80
2008,12,31,12,38,4.80
2008,12,31,12,39,1.60
2008,12,31,12,40,3.20
2008,12,31,12,41,3.20
2008,12,31,12,42,1.60
2008,12,31,12,43,1.60
2008,12,31,12,44,4.80
2008,12,31,12,45,1.60
2008,12,31,12,46,1.60
2008,12,31,12,47,1.60
2008,12,31,12,48,4.80
2008,12,31,12,49,1.60
2008,12,31,12,50,1.60
2008,12,31,12,51,4.80
2008,12,31,12,52,3.20
2008,12,31,12,53,3.20
2008,12,31,12,54,1.60
2008,12,31,12,55,3.20
2008,12,31,12,56,4.80
2008,12,31,12,57,3.20
2008,12,31,12,58,4.80
2008,12,31,12,59,4.80
2008,12,31,13,00,4.80
2008,12,31,13,01,3.20
2008,12,31,13,02,3.20
2008,12,31,13,03,0.00
2008,12,31,13,04,0.00
2008,12,31,13,05,0.00
2008,12,31,13,06,1.60
2008,12,31,13,07,1.60
2008,12,31,13,08,8.10
2008,12,31,13,09,8.10
2008,12,31,13,10,1.60
2008,12,31,13,11,0.00
2008,12,31,13,12,1.60
2008,12,31,13,13,1.60
2008,12,31,13,14,1.60
2008,12,31,13,15,0.00
2008,12,31,13,16,1.60
2008,12,31,13,17,0.00
2008,12,31,13,18,3.20
2008,12,31,13,19,3.20
2008,12,31,13,20,3.20
2008,12,31,13,21,1.60
2008,12,31,13,22,3.20
2008,12,31,13,23,3.20
2008,12,31,13,24,3.20
2008,12,31,13,25,3.20
2008,12,31,13,26,1.60
2008,12,31,13,27,3.20
2008,12,31,13,28,4.80
2008,12,31,13,29,3.20
2008,12,31,13,30,1.60
2008,12,31,13,31,3.20
2008,12,31,13,32,3.20
2008,12,31,13,33,4.80
2008,12,31,13,34,4.80
2008,12,31,13,35,3.20
2008,12,31,13,36,4.80
2008,12,31,13,37,6.40
2008,12,31,13,38,4.80
2008,12,31,13,39,1.60
2008,12,31,13,40,1.60
2008,12,31,13,41,0.00
2008,12,31,13,42,4.80
2008,12,31,13,43,3.20
2008,12,31,13,44,1.60
2008,12,31,13,45,1.60
2008,12,31,13,46,1.60
2008,12,31,13,47,3.20
2008,12,31,13,48,3.20
2008,12,31,13,49,1.60
2008,12,31,13,50,1.60
2008,12,31,13,51,3.20
2008,12,31,13,52,3.20
2008,12,31,13,53,4.80
2008,12,31,13,54,4.80
2008,12,31,13,55,3.20
2008,12,31,13,56,4.80
2008,12,31,13,57,3.20
2008,12,31,13,58,4.80
2008,12,31,13,59,3.20
2008,12,31,14,00,3.20
2008,12,31,14,01,4.80
2008,12,31,14,02,4.80
2008,12,31,14,03,1.60
2008,12,31,14,04,0.00
2008,12,31,14,05,3.20
2008,12,31,14,06,3.20
2008,12,31,14,07,1.60
2008,12,31,14,08,1.60
2008,12,31,14,09,3.20
2008,12,31,14,10,1.60
2008,12,31,14,11,0.00
2008,12,31,14,12,0.00
2008,12,31,14,13,0.00
2008,12,31,14,14,0.00
2008,12,31,14,15,1.60
2008,12,31,14,16,1.60
2008,12,31,14,17,1.60
2008,12,31,14,18,0.00
2008,12,31,14,19,0.00
2008,12,31,14,20,1.60
2008,12,31,14,21,3.20
2008,12,31,14,22,3.20
2008,12,31,14,23,4.80
2008,12,31,14,24,4.80
2008,12,31,14,25,4.80
2008,12,31,14,26,4.80
2008,12,31,14,27,1.60
2008,12,31,14,28,1.60
2008,12,31,14,29,1.60
2008,12,31,14,30,4.80
2008,12,31,14,31,4.80
2008,12,31,14,32,3.20
2008,12,31,14,33,3.20
2008,12,31,14,34,3.20
2008,12,31,14,35,1.60
2008,12,31,14,36,1.60
2008,12,31,14,37,0.00
2008,12,31,14,38,1.60
2008,12,31,14,39,1.60
2008,12,31,14,40,4.80
2008,12,31,14,41,4.80
2008,12,31,14,42,3.20
2008,12,31,14,43,1.60
2008,12,31,14,44,3.20
2008,12,31,14,45,1.60
2008,12,31,14,46,0.00
2008,12,31,14,47,4.80
2008,12,31,14,48,4.80
2008,12,31,14,49,3.20
2008,12,31,14,50,0.00
2008,12,31,14,51,0.00
2008,12,31,14,52,1.60
2008,12,31,14,53,3.20
2008,12,31,14,54,4.80
2008,12,31,14,55,3.20
2008,12,31,14,56,1.60
2008,12,31,14,57,0.00
2008,12,31,14,58,0.00
2008,12,31,14,59,0.00
2008,12,31,15,00,0.00
2008,12,31,15,01,1.60
2008,12,31,15,02,0.00
2008,12,31,15,03,0.00
2008,12,31,15,04,0.00
2008,12,31,15,05,0.00
2008,12,31,15,06,0.00
2008,12,31,15,07,0.00
2008,12,31,15,08,3.20
2008,12,31,15,09,3.20
2008,12,31,15,10,1.60
2008,12,31,15,11,0.00
2008,12,31,15,12,1.60
2008,12,31,15,13,1.60
2008,12,31,15,14,1.60
2008,12,31,15,15,0.00
2008,12,31,15,16,1.60
2008,12,31,15,17,0.00
2008,12,31,15,18,0.00
2008,12,31,15,19,0.00
2008,12,31,15,20,0.00
2008,12,31,15,21,0.00
2008,12,31,15,22,0.00
2008,12,31,15,23,0.00
2008,12,31,15,24,1.60
2008,12,31,15,25,0.00
2008,12,31,15,26,0.00
2008,12,31,15,27,0.00
2008,12,31,15,28,0.00
2008,12,31,15,29,0.00
2008,12,31,15,30,0.00
2008,12,31,15,31,0.00
2008,12,31,15,32,0.00
2008,12,31,15,33,0.00
2008,12,31,15,34,0.00
2008,12,31,15,35,0.00
2008,12,31,15,36,0.00
2008,12,31,15,37,0.00
2008,12,31,15,38,0.00
2008,12,31,15,39,0.00
2008,12,31,15,40,0.00
2008,12,31,15,41,0.00
2008,12,31,15,42,0.00
2008,12,31,15,43,0.00
2008,12,31,15,44,0.00
2008,12,31,15,45,0.00
2008,12,31,15,46,1.60
2008,12,31,15,47,1.60
2008,12,31,15,48,1.60
2008,12,31,15,49,3.20
2008,12,31,15,50,1.60
2008,12,31,15,51,0.00
2008,12,31,15,52,0.00
2008,12,31,15,53,0.00
2008,12,31,15,54,0.00
2008,12,31,15,55,0.00
2008,12,31,15,56,0.00
2008,12,31,15,57,0.00
2008,12,31,15,58,1.60
2008,12,31,15,59,1.60
2008,12,31,16,00,1.60
2008,12,31,16,01,1.60
2008,12,31,16,02,0.00
2008,12,31,16,03,3.20
2008,12,31,16,04,1.60
2008,12,31,16,05,1.60
2008,12,31,16,06,3.20
2008,12,31,16,07,1.60
2008,12,31,16,08,0.00
2008,12,31,16,09,1.60
2008,12,31,16,10,1.60
2008,12,31,16,11,0.00
2008,12,31,16,12,0.00
2008,12,31,16,13,3.20
2008,12,31,16,14,4.80
2008,12,31,16,15,1.60
2008,12,31,16,16,3.20
2008,12,31,16,17,4.80
2008,12,31,16,18,0.00
2008,12,31,16,19,0.00
2008,12,31,16,20,1.60
2008,12,31,16,21,1.60
2008,12,31,16,22,1.60
2008,12,31,16,23,0.00
2008,12,31,16,24,1.60
2008,12,31,16,25,1.60
2008,12,31,16,26,0.00
2008,12,31,16,27,0.00
2008,12,31,16,28,1.60
2008,12,31,16,29,0.00
2008,12,31,16,30,0.00
2008,12,31,16,31,1.60
2008,12,31,16,32,1.60
2008,12,31,16,33,4.80
2008,12,31,16,34,6.40
2008,12,31,16,35,1.60
2008,12,31,16,36,4.80
2008,12,31,16,37,1.60
2008,12,31,16,38,1.60
2008,12,31,16,39,3.20
2008,12,31,16,40,3.20
2008,12,31,16,41,3.20
2008,12,31,16,42,0.00
2008,12,31,16,43,0.00
2008,12,31,16,44,0.00
2008,12,31,16,45,0.00
2008,12,31,16,46,0.00
2008,12,31,16,47,1.60
2008,12,31,16,48,3.20
2008,12,31,16,49,3.20
2008,12,31,16,50,4.80
2008,12,31,16,51,4.80
2008,12,31,16,52,4.80
2008,12,31,16,53,1.60
2008,12,31,16,54,1.60
2008,12,31,16,55,0.00
2008,12,31,16,56,1.60
2008,12,31,16,57,1.60
2008,12,31,16,58,1.60
2008,12,31,16,59,0.00
2008,12,31,17,00,1.60
2008,12,31,17,01,3.20
2008,12,31,17,02,3.20
2008,12,31,17,03,3.20
2008,12,31,17,04,1.60
2008,12,31,17,05,1.60
2008,12,31,17,06,1.60
2008,12,31,17,07,0.00
2008,12,31,17,08,1.60
2008,12,31,17,09,0.00
2008,12,31,17,10,0.00
2008,12,31,17,11,0.00
2008,12,31,17,12,0.00
2008,12,31,17,13,0.00
2008,12,31,17,14,0.00
2008,12,31,17,15,0.00
2008,12,31,17,16,0.00
2008,12,31,17,17,0.00
2008,12,31,17,18,0.00
2008,12,31,17,19,0.00
2008,12,31,17,20,0.00
2008,12,31,17,21,0.00
2008,12,31,17,22,0.00
2008,12,31,17,23,0.00
2008,12,31,17,24,1.60
2008,12,31,17,25,3.20
2008,12,31,17,26,3.20
2008,12,31,17,27,1.60
2008,12,31,17,28,1.60
2008,12,31,17,29,1.60
2008,12,31,17,30,1.60
2008,12,31,17,31,1.60
2008,12,31,17,32,1.60
2008,12,31,17,33,1.60
2008,12,31,17,34,3.20
2008,12,31,17,35,1.60
2008,12,31,17,36,1.60
2008,12,31,17,37,0.00
2008,12,31,17,38,3.20
2008,12,31,17,39,3.20
2008,12,31,17,40,1.60
2008,12,31,17,41,0.00
2008,12,31,17,42,1.60
2008,12,31,17,43,1.60
2008,12,31,17,44,4.80
2008,12,31,17,45,4.80
2008,12,31,17,46,4.80
2008,12,31,17,47,4.80
2008,12,31,17,48,3.20
2008,12,31,17,49,4.80
2008,12,31,17,50,1.60
2008,12,31,17,51,1.60
2008,12,31,17,52,1.60
2008,12,31,17,53,3.20
2008,12,31,17,54,4.80
2008,12,31,17,55,4.80
2008,12,31,17,56,4.80
2008,12,31,17,57,6.40
2008,12,31,17,58,4.80
2008,12,31,17,59,4.80
2008,12,31,18,00,4.80
2008,12,31,18,01,4.80